www.pogodaiklimat.ru

Погода и климат >> Архив погоды >> Финляндия >> Кеми Айос


ПОГОДА в Кеми Айос

  • Прогноз погоды в Кеми Айос
  • Монитор погоды в Кеми Айос

АРХИВ ПОГОДЫ в Кеми Айос

Время (UTC), дата Ветер
(напр.,м/с)
 
Видим.   Явления Облачность Т
(С)
Тd
(С)
f
(%)
Тe
(С)
Тes
(С)
Комфортность P
(гПа)
Po
(гПа)
Тmin
(С)
Tmax
(С)
R
(мм)
R24
(мм)
S
(см)
07 11.07 СВ 5-7
{7}
50 км 9/0 2000 м
[]
+11.4 +4.1 61 +9 +9 1012.2 1011.8
08 11.07 СВ 5-7
{8}
45 км 9/9
[]
+11.9 +3.8 58 +10 +10 1012.2 1011.7
09 11.07 С 5-7
{8}
35 км 9/9 2000 м
[]
+12.7 +4.8 59 +11 +11 1011.9 1011.4
10 11.07 С 7 40 км 1/1
[]
+13.0 +3.4 52 +11 +14 1011.6 1011.2
11 11.07 С 6-7
{8}
40 км ясно +14.4 +3.7 49 +13 +17 1011.3 1010.9
12 11.07 С 5-7
{8}
40 км 4/1 1500 м
[]
+15.5 +2.9 43 +14 +19 1011.0 1010.5
13 11.07 СВ 4 35 км 1/1 1500 м
[]
+16.7 +2.7 39 +16 +22 1010.8 1010.3
14 11.07 СВ 4 40 км 1/1 1500 м
[]
+16.9 +3.6 41 +16 +21 1010.6 1010.2
15 11.07 С 4-5
{7}
35 км 1/0 1500 м
[]
+17.1 +3.1 39 +17 +20 1010.4 1010.0
16 11.07 СЗ 4 40 км 1/1 1500 м
[]
+16.2 +8.0 58 +16 +17 1010.4 1009.9
17 11.07 З 3 35 км ясно +15.8 +9.4 66 +15 +17 1010.3 1009.9
18 11.07 СВ 2-4
{6}
45 км ясно +16.8 +3.3 40 +17 +18 1010.1 1009.7 +10.8 +17.4
19 11.07 СВ 2 50 км ясно +16.2 +5.0 47 +16 +17 1010.2 1009.8
20 11.07 С 3-3
{3}
50 км ясно +14.7 +6.4 57 +14 +14 1010.2 1009.8
21 11.07 С 2-3
{3}
50 км ясно +12.5 +7.3 71 +12 +12 1010.5 1010.1
22 11.07 СВ 2-3
{3}
50 км ясно +11.8 +6.4 69 +11 +11 1010.6 1010.1
23 11.07 СВ 3 50 км ясно +11.9 +5.4 64 +10 +10 1010.6 1010.1
00 12.07 СВ 2-3
{4}
50 км ясно +10.9 +6.6 75 +10 +10 1010.6 1010.1
01 12.07 СВ 4 50 км ясно +10.7 +5.7 71 +8 +8 1010.7 1010.3
02 12.07 СВ 5 50 км ясно +10.1 +4.8 70 +7 +7 1010.8 1010.3
03 12.07 СВ 3-5
{6}
50 км ясно +10.1 +4.6 69 +8 +9 1010.8 1010.3
04 12.07 СВ 5-6
{6}
40 км ясно +11.5 +3.7 59 +9 +10 1010.9 1010.4
05 12.07 СВ 5-7
{9}
50 км ясно +11.9 +1.5 49 +10 +12 1010.7 1010.3
06 12.07 С 7-9
{9}
45 км ясно +12.9 +2.1 48 +11 +12 1010.6 1010.2 +9.9 +16.8
07 12.07 С 9 45 км ясно +13.6 +1.7 44 +11 +12 1010.6 1010.2
08 12.07 С 8 45 км ясно +14.8 +1.2 40 +13 +15 1010.2 1009.7
09 12.07 С 7-9
{12}
35 км ясно +15.7 +1.8 39 +14 +17 1010.0 1009.5
10 12.07 С 7 50 км ясно +16.3 +2.4 39 +15 +18 1009.7 1009.2
11 12.07 С 8 40 км ясно +16.9 +1.8 36 +16 +18 1009.6 1009.1
12 12.07 С 8-11
{12}
40 км ясно +17.4 +1.7 35 +16 +18 1009.2 1008.7
13 12.07 С 7-11
{11}
40 км ясно +17.8 +2.1 35 +17 +20 1008.9 1008.4
14 12.07 С 7 30 км ясно +18.6 +1.3 31 +18 +20 1008.8 1008.3
15 12.07 С 7-9
{12}
40 км ясно +18.5 +1.9 33 +18 +19 1008.6 1008.2
16 12.07 С 8 45 км ясно +18.4 +3.4 37 +18 +18 1008.4 1008.0
17 12.07 СВ 8-12
{12}
45 км ясно +18.3 +2.5 35 +18 +18 1008.4 1007.9
18 12.07 С 9-11
{12}
45 км ясно +17.9 +3.3 38 +17 +17 1008.6 1008.1 +12.9 +19.0
19 12.07 СВ 6-7
{9}
45 км ясно +17.3 +5.3 45 +17 +17 1008.9 1008.4
20 12.07 СВ 5 50 км ясно +16.3 +6.3 52 +15 +15 1009.3 1008.8
21 12.07 С 6-7
{7}
50 км ясно +15.2 +4.6 49 +14 +14 1009.6 1009.2
22 12.07 СВ 7-6
{8}
50 км ясно +14.2 +3.1 47 +12 +12 1009.8 1009.4
23 12.07 СВ 8 50 км ясно +13.1 +2.7 49 +11 +11 1010.2 1009.7
00 13.07 СВ 4-5
{7}
50 км ясно +11.3 +3.2 57 +9 +9 1010.6 1010.2
01 13.07 В 3 50 км ясно +10.4 +3.8 64 +9 +9 1010.8 1010.3
02 13.07 В 2-4
{4}
50 км 6/0
[]
+9.8 +4.7 71 +8 +9 1011.3 1010.8
03 13.07 В 2-4
{6}
50 км 10/0 2000 м
[]
+10.5 +4.2 65 +9 +10 1011.8 1011.3
04 13.07 СВ 4 50 км слаб. дождь 9/6 1500 м
[]
+10.6 +4.8 67 +8 +9 1012.0 1011.5
05 13.07 СВ 4 45 км 9/9 1500 м
[]
+10.8 +5.0 67 +9 +9 1012.2 1011.7
06 13.07 СВ 4-7
{7}
50 км в посл. час морось {ливн. осадки, дождь} 9/9 1000 м
[]
+10.8 +4.8 66 +9 +9 1012.4 1011.9 +9.5 +17.9
07 13.07 СВ 5-7
{8}
45 км 9/9 600 м
[]
+11.0 +5.1 67 +8 +9 1012.5 1012.0
08 13.07 СВ 5-7
{7}
45 км слаб. ливневой дождь 9/6 600 м
[]
+11.3 +5.5 67 +9 +10 1013.0 1012.5
09 13.07 СВ 5-8
{8}
45 км {ливн. осадки, дождь} 10/0 1000 м
[]
+12.8 +5.3 60 +11 +14 1012.9 1012.4
10 13.07 С 6 50 км 9/9 600 м
[]
+12.3 +5.6 64 +10 +10 1012.8 1012.4
11 13.07 СВ 6-7
{9}
50 км 9/9 600 м
[]
+12.5 +5.5 62 +10 +10 1013.0 1012.5
12 13.07 СВ 6-8
{9}
45 км {ливн. осадки, дождь} 9/6 600 м
[]
+13.0 +6.1 63 +11 +12 1012.7 1012.3
13 13.07 СВ 6 50 км 9/6 600 м
[]
+13.3 +5.9 61 +11 +12 1012.6 1012.2
14 13.07 СВ 5 45 км 9/1 600 м
[]
+14.1 +6.2 59 +13 +14 1012.4 1012.0
15 13.07 СВ 7-9
{9}
50 км 10/10 600 м
[]
+13.4 +6.4 63 +11 +11 1012.6 1012.1
16 13.07 СВ 5 50 км 9/9 1000 м
[]
+13.2 +6.4 63 +11 +12 1012.7 1012.2
17 13.07 СВ 6 50 км 9/1 1000 м
[]
+13.2 +5.6 60 +11 +11 1012.7 1012.2
18 13.07 СВ 7-8
{9}
45 км 6/1 1000 м
[]
+13.0 +5.7 61 +11 +11 1012.8 1012.3 +10.8 +14.1
19 13.07 СВ 7-7
{10}
50 км 1/0 2000 м
[]
+12.5 +5.6 63 +10 +10 1012.8 1012.3
20 13.07 СВ 5-7
{7}
45 км 1/0
[]
+12.2 +6.4 68 +10 +10 1012.9 1012.5
21 13.07 СВ 5-6
{7}
40 км 9/0
[]
+11.6 +6.2 69 +9 +9 1013.1 1012.7
22 13.07 СВ 3 35 км 9/0
[]
+10.9 +6.2 73 +9 +9 1013.1 1012.7
23 13.07 СВ 5 45 км 4/0
[]
+10.7 +6.5 75 +8 +8 1013.2 1012.7
00 14.07 СВ 5-6
{8}
40 км 6/0
[]
+10.6 +6.8 77 +8 +8 1013.5 1013.0
01 14.07 СВ 5 45 км 1/0
[]
+10.3 +6.9 79 +7 +7 1013.5 1013.0
02 14.07 СВ 4-6
{7}
35 км 6/0
[]
+10.1 +7.1 82 +7 +8 1013.5 1013.0
03 14.07 СВ 4-5
{7}
26 км 6/0
[]
+10.2 +7.1 81 +8 +8 1013.6 1013.1
04 14.07 С 4 25 км 1/1
[]
+10.1 +7.0 81 +7 +9 1013.7 1013.2
05 14.07 СВ 3 29 км ясно +10.6 +6.9 78 +9 +12 1013.5 1013.1
06 14.07 С 3-4
{5}
30 км ясно +11.2 +7.3 77 +9 +14 1013.5 1013.1 +9.9 +13.1
07 14.07 СВ 3 40 км 4/0
[]
+12.0 +7.3 73 +10 +15 1013.5 1013.0
08 14.07 СВ 3-4
{5}
35 км 1/0
[]
+13.4 +5.5 59 +12 +19 1013.5 1013.0
09 14.07 С 2-3
{4}
35 км 6/1
[]
+14.4 +5.9 57 +14 +21 1013.5 1013.0
10 14.07 З 3 50 км 4/1 1000 м
[]
+15.2 +7.4 60 +15 +22 1013.3 1012.8
11 14.07 З 5 35 км 9/1 1500 м
[]
+15.5 +8.5 63 +14 +17 1013.1 1012.6
12 14.07 З 4-5
{6}
40 км 6/6 1500 м
[]
+15.2 +9.5 69 +14 +17 1012.9 1012.5
13 14.07 З 4-6
{6}
50 км 9/9 1500 м
[]
+15.6 +9.5 67 +15 +15 1012.7 1012.3
14 14.07 З 6-8
{8}
50 км 6/4 1500 м
[]
+16.5 +10.5 68 +15 +17 1012.7 1012.2
15 14.07 З 6-7
{8}
45 км 9/4 1500 м
[]
+15.6 +9.5 67 +14 +15 1012.6 1012.1
16 14.07 З 6 40 км 4/1 1500 м
[]
+15.6 +9.6 67 +14 +15 1012.4 1012.0
17 14.07 З 6 45 км 6/6 1500 м
[]
+15.3 +8.3 63 +14 +14 1012.2 1011.8
18 14.07 СЗ 4-5
{6}
50 км слаб. ливневой дождь 9/1 1500 м
[]
+15.0 +8.8 66 +14 +14 1012.0 1011.6 +11.0 +16.6
19 14.07 СЗ 4-4
{5}
50 км 9/6 1500 м
[]
+14.9 +9.1 68 +14 +14 1011.8 1011.3
20 14.07 СЗ 3 50 км 9/9 1500 м
[]
+15.0 +9.3 69 +14 +14 1011.9 1011.4
21 14.07 В 1-2
{5}
40 км {ливн. осадки} 9/1 1500 м
[]
+13.7 +8.2 69 +14 +14 1011.8 1011.3
22 14.07 С 3 50 км в посл. час дождь 9/9 600 м
[]
+14.0 +8.8 71 +13 +13 1011.8 1011.4
23 14.07 В 3 45 км слаб. ливневой дождь 10/6 1500 м
[]
+12.6 +8.8 78 +11 +11 1011.7 1011.3
00 15.07 В 3-6
{7}
50 км в посл. час дождь {ливн. осадки} 9/1 1500 м
[]
+11.7 +7.0 73 +10 +10 1011.7 1011.2
01 15.07 В 3 28 км 6/6 1500 м
[]
+11.4 +6.9 74 +10 +10 1011.7 1011.3
02 15.07 В 3-4
{7}
40 км 9/0 2000 м
[]
+11.3 +6.5 72 +10 +10 1011.7 1011.2
03 15.07 В 2-3
{5}
50 км 9/6 1000 м
[]
+11.4 +7.0 74 +10 +11 1011.6 1011.1
04 15.07 В 3-6
{6}
45 км в посл. час дождь 9/0 1500 м
[]
+11.2 +7.6 78 +9 +9 1011.5 1011.0
05 15.07 В 2 30 км слаб. ливневой дождь 10/10 1500 м
[]
+10.9 +8.2 83 +10 +10 1011.5 1011.0
06 15.07 СВ 2-5
{5}
35 км в посл. час дождь {ливн. осадки} 9/9 1500 м
[]
+13.2 +8.5 73 +13 +13 1011.4 1010.9 +10.9 +15.0
07 15.07 СВ 4-6
{6}
40 км 4/0 2000 м
[]
+13.9 +7.0 63 +13 +15 1011.3 1010.9
08 15.07 СВ 4-6
{7}
45 км ясно +13.9 +6.0 59 +13 +18 1011.3 1010.9
09 15.07 СВ 4-6
{7}
45 км 6/0 1500 м
[]
+14.8 +5.1 52 +14 +19 1011.2 1010.8
10 15.07 СВ 6 35 км 6/6 1000 м
[]
+14.3 +6.2 58 +13 +14 1011.1 1010.7
11 15.07 СВ 4 40 км 9/9 1500 м
[]
+14.7 +5.4 54 +14 +14 1011.1 1010.7
12 15.07 СВ 4-6
{7}
40 км 9/0 1000 м
[]
+15.0 +5.8 54 +14 +18 1011.2 1010.7
13 15.07 СВ 4 50 км 9/9 1500 м
[]
+15.3 +6.0 54 +14 +15 1011.3 1010.8
14 15.07 СВ 5-7
{7}
40 км 9/9 1500 м
[]
+15.9 +5.4 50 +15 +15 1011.2 1010.7
15 15.07 СВ 5-7
{7}
40 км 9/0 1500 м
[]
+15.7 +5.9 52 +15 +16 1011.1 1010.6
16 15.07 В 2 50 км 9/6 1500 м
[]
+15.4 +5.8 53 +15 +16 1011.3 1010.8
17 15.07 СВ 3 45 км 10/10 2000 м
[]
+15.4 +5.8 53 +15 +15 1011.2 1010.7
18 15.07 СВ 4-6
{6}
40 км 9/9 2000 м
[]
+15.7 +6.2 53 +15 +15 1011.1 1010.6 +13.2 +16.3
19 15.07 СВ 5 45 км 10/10 2000 м
[]
+15.1 +6.3 56 +14 +14 1011.2 1010.7
20 15.07 СВ 4 50 км 9/9 2000 м
[]
+14.5 +6.6 59 +13 +13 1011.4 1010.9
21 15.07 СВ 4-6
{6}
50 км 10/0 2000 м
[]
+13.5 +7.4 67 +12 +12 1011.7 1011.2
22 15.07 СВ 3-6
{7}
50 км 10/10 1500 м
[]
+12.7 +7.2 69 +11 +11 1011.7 1011.2
23 15.07 СВ 4-6
{6}
50 км 10/0 2000 м
[]
+12.3 +7.6 73 +10 +10 1011.9 1011.4
00 16.07 СВ 4-6
{6}
50 км 10/0 2000 м
[]
+11.8 +7.8 76 +10 +10 1012.0 1011.6
01 16.07 СВ 4-6
{6}
50 км 9/0 2000 м
[]
+11.5 +8.2 80 +9 +9 1012.2 1011.7
02 16.07 СВ 4-5
{6}
40 км 9/1 1500 м
[]
+11.1 +8.5 84 +9 +9 1012.5 1012.0
03 16.07 СВ 4-5
{5}
40 км 6/0 2000 м
[]
+11.1 +8.9 86 +9 +9 1012.7 1012.2
04 16.07 В 2 40 км 9/4 1500 м
[]
+11.7 +8.6 81 +11 +11 1013.0 1012.6
05 16.07 В 2-4
{4}
45 км 9/4 1000 м
[]
+12.4 +8.8 79 +12 +13 1013.2 1012.7
06 16.07 СВ 2-3
{3}
35 км 9/1 1000 м
[]
+13.6 +8.7 72 +13 +16 1013.3 1012.8 +11.0 +15.8
07 16.07 С 2-3
{4}
45 км 6/1 600 м
[]
+13.9 +9.3 74 +13 +18 1013.4 1013.0
08 16.07 Ю 1 50 км 9/1 600 м
[]
+14.2 +9.2 72 +15 +20 1013.3 1012.8
09 16.07 С 2-2
{3}
35 км 4/0 2000 м
[]
+15.6 +7.3 58 +16 +24 1013.3 1012.9
10 16.07 СЗ 2-4
{4}
40 км 9/6 1500 м
[]
+15.6 +8.3 62 +16 +23 1013.4 1012.9
11 16.07 З 3 50 км в посл. час дождь 4/4 2000 м
[]
+15.3 +8.6 64 +15 +20 1013.4 1012.9
12 16.07 В 4-6
{7}
12 км ливневой дождь 9/9 600 м
[]
+13.7 +9.2 74 +12 +13 1013.7 1013.2
14 16.07 С 2-2
{7}
45 км в посл. час дождь 4/0 1500 м
[]
+14.7 +10.7 77 +14 +17 1013.4 1012.9
15 16.07 -6
{7}
40 км {ливн. осадки} 1/0
[]
+15.6 +9.1 65 1013.3 1012.8
16 16.07 С 3 40 км ясно +16.6 +8.2 58 +16 +19 1013.3 1012.8
17 16.07 С 2 40 км ясно +16.6 +8.4 58 +17 +18 1013.3 1012.8
18 16.07 СЗ 1-1
{2}
50 км {ливн. осадки, метель} ясно +16.4 +9.7 65 +17 +18 1013.3 1012.9 +13.0 +17.4
19 16.07 З 1-1
{2}
50 км 1/0 1500 м
[]
+15.5 +10.7 73 +16 +16 1013.4 1012.9
20 16.07 Ю 1-2
{2}
45 км 9/9 2000 м
[]
+14.5 +10.9 79 +15 +15 1013.4 1012.9
21 16.07 СЗ 2-2
{3}
50 км ясно +13.8 +11.3 85 +13 +13 1013.5 1013.1
22 16.07 СВ 3-4
{4}
50 км 4/0
[]
+13.0 +12.2 95 +12 +12 1013.5 1013.1
23 16.07 СВ 4-4
{5}
50 км ясно +13.0 +9.5 79 +11 +11 1013.4 1013.0
00 17.07 СВ 4-4
{4}
50 км ясно +12.1 +8.6 79 +10 +10 1013.4 1012.9
01 17.07 СВ 4 50 км 4/0
[]
+12.0 +8.8 81 +10 +10 1013.4 1012.9
02 17.07 СВ 3 50 км ясно +11.1 +8.2 82 +9 +9 1013.3 1012.8
03 17.07 В 3-4
{6}
45 км ясно +11.2 +7.5 78 +9 +10 1013.2 1012.7
04 17.07 В 2 45 км ясно +11.9 +7.6 75 +11 +13 1013.2 1012.7
05 17.07 СВ 2 30 км 1/0
[]
+13.5 +8.1 70 +13 +16 1013.2 1012.7
06 17.07 СВ 3-5
{5}
45 км 9/9
[]
+14.7 +6.0 56 +14 +14 1013.1 1012.6 +11.1 +16.4
07 17.07 СВ 3-5
{5}
40 км 4/4
[]
+15.2 +5.8 53 +15 +15 1013.1 1012.7
08 17.07 СВ 2-3
{5}
45 км 1/0
[]
+15.7 +7.0 56 +16 +24 1013.1 1012.7
09 17.07 СВ 2-4
{4}
40 км 1/0
[]
+17.1 +6.6 50 +17 +27 1013.1 1012.6
10 17.07 С 3 45 км ясно +16.7 +5.7 48 +17 +26 1013.0 1012.5
11 17.07 ЮЗ 3 35 км 1/1
[]
+17.7 +7.5 51 +18 +26 1012.8 1012.4
12 17.07 З 3-3
{3}
40 км 6/4
[]
+16.8 +6.9 52 +17 +21 1012.7 1012.2
13 17.07 З 4 29 км 1/0
[]
+16.7 +7.7 55 +16 +22 1012.6 1012.1
14 17.07 З 4 35 км 1/1
[]
+18.0 +8.8 55 +18 +22 1012.3 1011.8
15 17.07 СЗ 3-4
{4}
35 км ясно +18.4 +8.3 52 +19 +23 1012.3 1011.9
16 17.07 З 4 40 км 6/6 1500 м
[]
+17.5 +9.1 58 +17 +18 1012.2 1011.8
17 17.07 СВ 2 45 км в посл. час морось 9/6 1500 м
[]
+16.2 +8.7 61 +16 +17 1012.5 1012.0
18 17.07 С 3-5
{7}
50 км {ливн. осадки, дождь} 9/1 1500 м
[]
+16.1 +9.3 64 +16 +16 1012.5 1012.1 +14.7 +18.8
19 17.07 СВ 2 50 км 9/9 1500 м
[]
+15.7 +10.2 70 +16 +16 1012.7 1012.2
20 17.07 С 3 50 км ясно +15.2 +9.5 69 +15 +15 1012.6 1012.1
21 17.07 СВ 3-4
{5}
50 км 1/0 2000 м
[]
+14.2 +9.0 71 +13 +13 1012.8 1012.4
22 17.07 В 2-4
{5}
45 км ясно +12.1 +8.8 80 +11 +11 1013.2 1012.7
23 17.07 В 2 50 км 4/4 2000 м
[]
+11.9 +10.3 90 +11 +11 1013.4 1012.9
00 18.07 В 2-4
{5}
50 км 1/0 1500 м
[]
+11.4 +11.4 100 +10 +10 1013.5 1013.1
01 18.07 В 4 50 км 1/1 1500 м
[]
+10.8 +10.8 100 +8 +8 1013.8 1013.3
02 18.07 В 3 50 км ясно +10.8 +10.8 100 +9 +9 1013.8 1013.4
03 18.07 В 3-5
{5}
50 км ясно +11.6 +10.4 92 +10 +10 1014.1 1013.6
04 18.07 В 1 45 км ясно +12.6 +10.4 86 +13 +15 1014.2 1013.8
05 18.07 СВ 2 40 км ясно +13.2 +11.0 87 +12 +16 1014.4 1013.9
06 18.07 СВ 3-4
{4}
40 км ясно +14.8 +10.2 74 +14 +18 1014.6 1014.2 +10.6 +16.3

 

Местоположение метеостанции Кеми Айос (Финляндия): широта 65.67 долгота 24.52 высота над уровнем моря 3 м.

В архиве по умолчанию представлена погода в Кеми Айос за последнюю неделю. Архивные данные за месяц целиком и за предыдущие месяцы, начиная с января 2011 года, Вы можете получить, выбрав интересующий диапазон дат из раскрывающегося списка и нажав кнопку "Ввод!".


*Определитесь, кто Вы:
робот инопланетянин человек

Внимание! Время в таблицах - всемирное. Для получения местного времени необходимо прибавить поправку, которая равна 1 ч.

Смотрите также архив погоды в соседних городах и на ближайших метеорологических станциях:

Погода в Кеми аэропорту (Финляндия) (13 км)
Погода в Хапаранда аэропорту (Швеция) (25 км)
Погода в Торнио (Финляндия) (26 км)
Погода в Кеми (Финляндия) (37 км)
Погода в Стороне (Швеция) (65 км)
Погода в Дйнжандихеиди (Исландия) (66 км)
Погода на Маяке Marjaniemi (Финляндия) (70 км)
Погода в Хайлуото (Финляндия) (73 км)
Погода в Оулу (Финляндия) (84 км)
Погода на Гуфускаларе (Исландия) (90 км)

Пояснения к столбцам:

Ветер - указаны скорость ветра в м/с - средняя за 10 мин, порывы в срок и между сроками (в фигурных скобках) и направление, откуда дует ветер: С - северный, СВ - северо-восточный, В - восточный, ЮВ - юго-восточный, Ю - южный, ЮЗ - юго-западный, З - западный, СЗ - северо-западный.
Видимость - горизонтальная дальность видимости в метрах или километрах. При видимости от 1 до 10 км при отсутствии осадков обычно наблюдается дымка, при ухудшении видимости до 1 км и менее - туман. В сухую погоду видимость может ухудшаться дымом, пылью или мглою.
Явления - указаны атмосферные явления, наблюдавшиеся в срок или в последний час перед сроком; фигурными скобками обозначены явления, наблюдавшиеся между сроками (за 1-3 часа до срока); квадратными скобками обозначены град или гололедные отложения с указанием их диаметра в мм.
Облачность - указаны через наклонную черту общая и нижняя облачность в баллах и высота нижней границы облаков в метрах; квадратными скобками обозначены формы облаков: Ci - перистые, Cs - перисто-слоистые, Cc - перисто-кучевые, Ac - высококучевые, As - высокослоистые, Sc - слоисто-кучевые, Ns - слоисто-дождевые, Cu - кучевые, Cb - кучево-дождевые. Подробнее классификацию облаков см. в Атласе облаков (PDF).
T - Температура воздуха - температура, измеренная на высоте 2 м над землей.
Td - Температура точки росы - температура, при понижении до которой содержащийся в воздухе водяной пар достигнет насыщения.
f - Относительная влажность воздуха - влажноcть воздуха, измеренная на высоте 2 м над землей.
Te - Эффективная температура - температура, которую ощущает одетый по сезону человек в тени. Характеристика душности погоды. При расчете учитывается влияние влажности воздуха и скорости ветра на теплоощущения человека.
Tes - Эффективная температура на солнце - температура, которую ощущает человек, с поправкой на солнечный нагрев. Характеристика знойности погоды. Зависит от высоты солнца над горизонтом, облачности и скорости ветра. Ночью, в пасмурную погоду, а также при ветре 12 м/с и более поправка равна нулю.
P - Атмосферное давление - приведенное к уровню моря атмосферное давление.
Po - Атмосферное давление - измеренное на уровне метеостанции атмосферное давление.
Tmin - Минимальная температура - минимум температуры воздуха на высоте 2 м над землей.
Tmax - Максимальная температура - максимум температуры воздуха на высоте 2 м над землей.
R - Количество осадков - Количество выпавших осадков за период времени, мм. При наведении курсора мыши на число - период времени, за который выпало указанное количество осадков.
R24 - Количество осадков - Количество выпавших осадков за 24 часа, мм.
S - Снежный покров - Высота снежного покрова, см. При наведении курсора мыши на число - состояние снежного покрова и степень покрытия местности в баллах.